{"data":{"norad_id":40272,"epoch":"2026-05-25T03:55:30.549792Z","epoch_age_seconds":56864,"freshness":"FRESH","line1":"1 40272U 14062B   26145.16354803 -.00000262  00000+0  00000+0 0  9995","line2":"2 40272   0.0491  76.0279 0001826 337.3905 176.4077  1.00271249 42395","mean_motion":1.00271249,"eccentricity":0.0001826,"inclination_deg":0.0491,"raan_deg":76.0279,"arg_perigee_deg":337.3905,"mean_anomaly_deg":176.4077,"bstar":0,"rev_number":4239,"period_min":1436.1045806859,"perigee_km":35779.045914624,"apogee_km":35794.444529611,"semimajor_km":42164.882222117,"source":"CELESTRAK","updated_at":"2026-05-25T13:38:13.952781Z"}}